Location: La Chapelle
(48.3135°N, 1.3085°W)
Time: 02:59:49
(UTC+00:00)

CZ-2C R/B - Pass Details

Date: 03 March 2021
Orbit: 784 x 871 km, 98.2° (Epoch: 12 April)

Event Time Altitude Azimuth Distance (km) Brightness Sun altitude
Rises 19:40:46 0° 11° (NNE) 3,438 5.9 -18.7°
Reaches altitude 10° 19:43:11 10° 9° (N) 2,486 5.2 -19.1°
Maximum altitude 19:48:39 67° 289° (WNW) 908 3.0 -20.0°
Drops below altitude 10° 19:53:57 10° 207° (SSW) 2,412 5.2 -20.8°
Sets 19:56:16 0° 205° (SSW) 3,327 5.9 -21.2°
